Weather History for Baker, MT

Change the Weather History Date:

Tuesday, February 5, 2013

  Actual Average Record
Temperature  
Mean Temperature 30 °F -  
Max Temperature 37 °F 38 °F 48 °F (2009)
Min Temperature 24 °F 14 °F -18 °F (2014)
Degree Days  
Heating Degree Days 34    
Moisture  
Dew Point 23 °F    
Average Humidity 72    
Maximum Humidity 82    
Minimum Humidity 59    
Precipitation  
Precipitation 0.00 in - - ()
Sea Level Pressure  
Sea Level Pressure 29.91 in    
Wind  
Wind Speed 10 mph (SW)    
Max Wind Speed 15 mph    
Max Gust Speed 21 mph    
Visibility 10 miles    
Events      
Averages and records for this station are not official NWS values.
T = Trace of Precipitation, MM = Missing Value Source: NWS Daily Summary

Daily Weather History Graph

Daily Weather History Graph

Search for Another Location

Airport:

Trip Planner

Search our weather history database for the weather conditions in past years. The results will help you decide how hot, cold, wet, or windy it might be!

Date:

Astronomy

Feb. 05, 2013 Rise Set
Actual Time 7:14 AM MST 5:08 PM MST
Civil Twilight 6:42 AM MST 5:39 PM MST
Nautical Twilight 6:07 AM MST 6:15 PM MST
Astronomical Twilight 5:32 AM MST 6:50 PM MST
Moon 3:05 AM MST (2/5) 12:21 PM MST (2/5)
Length of Visible Light 10h 56m
Length of Day
9h 53m
Waning Crescent, 26% of the Moon is Illuminated
Feb 5
Waning Crescent
Feb 10
New
Feb 17
First Quarter
Feb 25
Full
Mar 4
Last Quarter

Hourly Weather History & Observations

Time (MST) Temp. Windchill Dew Point Humidity Pressure Visibility Wind Dir Wind Speed Gust Speed Precip Events Conditions
12:51 AM 32.0 °F 21.6 °F 24.1 °F 73% 29.87 in 10.0 mi NW 15.0 mph 20.7 mph N/A   Clear
1:51 AM 30.9 °F 20.2 °F 23.0 °F 72% 29.91 in 10.0 mi West 15.0 mph - N/A   Mostly Cloudy
2:51 AM 30.0 °F 19.5 °F 23.0 °F 75% 29.93 in 10.0 mi WNW 13.8 mph - N/A   Mostly Cloudy
3:51 AM 28.9 °F 19.2 °F 21.0 °F 72% 29.94 in 10.0 mi WNW 11.5 mph - N/A   Overcast
4:51 AM 28.9 °F 18.6 °F 21.0 °F 72% 29.97 in 10.0 mi WNW 12.7 mph - N/A   Partly Cloudy
5:51 AM 24.1 °F 15.2 °F 19.0 °F 81% 29.99 in 10.0 mi West 8.1 mph - N/A   Clear
6:51 AM 24.1 °F 15.2 °F 19.0 °F 81% 30.00 in 10.0 mi West 8.1 mph - N/A   Mostly Cloudy
7:51 AM 27.0 °F 18.7 °F 21.0 °F 78% 30.00 in 10.0 mi West 8.1 mph - N/A   Overcast
8:51 AM 28.9 °F 20.4 °F 21.9 °F 75% 30.02 in 10.0 mi West 9.2 mph - N/A   Overcast
9:51 AM 30.9 °F 22.8 °F 21.0 °F 67% 30.02 in 10.0 mi West 9.2 mph - N/A   Overcast
10:51 AM 32.0 °F 28.7 °F 21.0 °F 64% 30.01 in 10.0 mi West 3.5 mph - N/A   Overcast
11:51 AM 34.0 °F 29.8 °F 23.0 °F 64% 29.99 in 10.0 mi SSW 4.6 mph - N/A   Overcast
12:51 PM 35.1 °F 31.0 °F 21.9 °F 59% 29.95 in 10.0 mi South 4.6 mph - N/A   Overcast
1:51 PM 37.0 °F 30.4 °F 24.1 °F 59% 29.92 in 10.0 mi SSE 9.2 mph - N/A   Mostly Cloudy
2:51 PM 37.9 °F 32.1 °F 25.0 °F 60% 29.89 in 10.0 mi SE 8.1 mph - N/A   Clear
3:51 PM 37.9 °F 35.5 °F 28.0 °F 68% 29.87 in 10.0 mi SE 3.5 mph - N/A   Clear
4:51 PM 34.0 °F 26.6 °F 27.0 °F 75% 29.86 in 10.0 mi SE 9.2 mph - N/A   Clear
5:51 PM 30.9 °F 26.2 °F 25.0 °F 79% 29.86 in 10.0 mi SSE 4.6 mph - N/A   Clear
7:51 PM 36.0 °F 31.1 °F 27.0 °F 70% 29.81 in 10.0 mi ESE 5.8 mph - N/A   Overcast
8:51 PM 33.1 °F 26.9 °F 27.0 °F 78% 29.81 in 10.0 mi ESE 6.9 mph - N/A   Overcast
9:51 PM 33.1 °F 26.1 °F 27.0 °F 78% 29.79 in 10.0 mi ESE 8.1 mph - N/A   Overcast
10:51 PM 28.9 °F 22.8 °F 24.1 °F 82% 29.78 in 10.0 mi ESE 5.8 mph - N/A   Partly Cloudy
11:51 PM 32.0 °F 24.8 °F 25.0 °F 75% 29.77 in 10.0 mi West 8.1 mph - N/A   Clear